This is the latest recevied weather packets stored in our database for station/object N4QD-13. If no packets are shown the sender has not sent any weather packets the latest 10 day(s).
| Time | Temp. | Humidity | Pressure | Rain* | Wind** | Luminosity | Snow |
|---|---|---|---|---|---|---|---|
| 1778127076 | 14.44° C | 99% | 1011.9 hPa | 1.78 mm | - | 0 W/m² | - |
| 1778126773 | 14.44° C | 99% | 1011.8 hPa | 3.05 mm | - | 0 W/m² | - |
| 1778126469 | 15° C | 99% | 1011.7 hPa | 10.16 mm | - | 0 W/m² | - |
| 1778126165 | 15° C | 99% | 1012.2 hPa | 15.49 mm | - | 0 W/m² | - |
| 1778125861 | 15° C | 99% | 1012.6 hPa | 6.6 mm | - | 0 W/m² | - |
| 1778125558 | 15.56° C | 99% | 1012.1 hPa | 0 mm | - | 0 W/m² | - |
| 1778125256 | 15.56° C | 99% | 1012 hPa | 0 mm | - | 0 W/m² | - |
| 1778124954 | 15.56° C | 99% | 1011.9 hPa | 0 mm | - | 0 W/m² | - |
| 1778124651 | 16.11° C | 99% | 1011.8 hPa | 0 mm | - | 0 W/m² | - |
| 1778124348 | 16.11° C | 99% | 1011.8 hPa | 0 mm | - | 0 W/m² | - |
| 1778124044 | 16.11° C | 99% | 1011.7 hPa | 1.27 mm | - | 0 W/m² | - |
| 1778123741 | 16.67° C | 99% | 1011.8 hPa | 3.05 mm | - | 0 W/m² | - |
| 1778123438 | 16.67° C | 99% | 1011.6 hPa | 1.78 mm | - | 0 W/m² | - |
| 1778123134 | 16.67° C | 99% | 1011.6 hPa | 0 mm | - | 0 W/m² | - |
| 1778122832 | 16.67° C | 99% | 1011.6 hPa | 0 mm | - | 0 W/m² | - |
| 1778122529 | 16.67° C | 99% | 1011.4 hPa | 0 mm | - | 0 W/m² | - |
| 1778122227 | 16.67° C | 99% | 1011.5 hPa | 0 mm | - | 0 W/m² | - |
| 1778121924 | 16.67° C | 99% | 1011.3 hPa | 0 mm | - | 0 W/m² | - |
| 1778121621 | 16.67° C | 99% | 1011.5 hPa | 0 mm | - | 0 W/m² | - |
| 1778121316 | 16.67° C | 99% | 1011.6 hPa | 1.27 mm | - | 0 W/m² | - |
| 1778121015 | 16.67° C | 99% | 1011.4 hPa | 1.27 mm | - | 0 W/m² | - |
| 1778120711 | 16.67° C | 99% | 1011.1 hPa | 0 mm | - | 0 W/m² | - |
| 1778120406 | 17.22° C | 99% | 1011.1 hPa | 7.87 mm | - | 0 W/m² | - |
| 1778120102 | 17.22° C | 98% | 1011.1 hPa | 7.87 mm | - | 0 W/m² | - |
| 1778119799 | 17.78° C | 93% | 1010.9 hPa | 0 mm | - | 0 W/m² | - |
* Rain latest hour (hover to see other rain measurements)
** Current wind speed in m/s (hover to see current wind gust speed)